STARLINK-2414, 48095

Orbit data source: Space-Track

STARLINK-2414, 48095 is a payload satellite owned by SpaceX/Seattle (US) in LEO that was launched on Wed, 07 Apr 2021 UTC via an FALCON 9 launch vehicle from the Air Force Eastern Test Range (AFETR). Payload-class satellites include a variety of spacecraft equipped with specific instruments for various scientific and technological missions. These include communications satellites like Starlink; space stations such as the ISS; scientific satellites like the Hubble; Earth observation satellites from companies like Planet Labs, Umbra, and HawkEye 360; GPS; miniature CubeSats for education and research; and military/defense satellites.

Loading next visibility...
Identifier
48095, 2021-027D
Orbit
LEO
Country
Flag of USUS
Related business
Manufacturer
SpaceX/Seattle
Mission
Operational Commercial Communications
Bus & Motor
STARLINK, Unknown motor
Mass
260 kg wet, ~248 kg dry
Launch date (UTC)
2021-04-07 (5 years ago)
Launch vehicle
FALCON 9
Launch site
Air Force Eastern Test Range (AFETR)
Object type
Payload
Rocket body
Debris
Shape & HBR
Box + 1 Pan, 10.1 m
Radar Cross Section
13.562 m², Large (>1 m²)

Expand to show TLE details & history
Last TLE update: 2 days ago

TLE from 2 days ago
0 STARLINK-2414
1 48095U 21027D   26171.34990602  .00000935  00000-0  41890-4 0  9991
2 48095  53.1605  47.8687 0001222 101.0801 259.0338 15.31707358288251
Epoch: 2026-06-20T08:23Z
TLE epoch observation values (Epoch: 2026-06-20T08:23:51.880Z)
Latitude
0.00001°
Longitude
13.33674°
Altitude
471.778 km
Speed
7.631 km/s
True Right ascension
03h 11m 28s
True Declination
0° 00' 00"
Sunlit
Object was in daylight at epoch
Visualization orbit readout
Latitude
Unknown
Longitude
Unknown
Altitude
Unknown
Speed
Unknown
Apparent Right ascension
Unknown
Apparent Declination
Unknown
Sunlit
N/A
Visualization observer readout
Local Sidereal Time
21:27:15
Azimuth
Unknown
Elevation
Unknown
Doppler factor
Unknown
Orbital elements
Apogee altitude
471.812 km
Perigee altitude
470.138 km
Semi-major axis
6,849.112 km
Eccentricity
0.00012
Inclination
53.1605°
RAAN
47.8687°
Arg. of periapsis
101.0801°
True anomaly
259.02005°
Mean anomaly
259.0338°
Eccentric anomaly
259.02693°
Mean motion
3.82906 °/min
Orbital period
94.02 mins
BSTAR
0.00004189
Loading maneuver chart data...
Computing Atmospheric mass density...

Documentation

Showing up to 5 results
|